When you browse on this site, cookies collect data to enhance your experience and personalize the content and advertising you see.
Visit our Privacy Policy to learn more. By continuing to use the site, you agree to this use of cookies and data.
  • Em Portugal
  • Lista de países
  • Para 7 dias
  • Temperatura da água
  • Mapa do tempo
  • Widgets de tempo
  • user-avatar
    Iniciar Sessão

    Previsão horária em Wien

    Hoje, 4 Junho, Quinta-feira

    Tempo Temperatura Precipitação Vento Pressão Humidade
    00:00 +15°C° 0 mm 1 m/s 733 mmHg 76%
    01:00 +14°C° 0 mm 1 m/s 733 mmHg 75%
    02:00 +14°C° 0 mm 1 m/s 733 mmHg 77%
    03:00 +13°C° 0 mm 1 m/s 732 mmHg 79%
    04:00 +12°C° 0 mm 1 m/s 732 mmHg 81%
    05:00 +14°C° 0 mm 1 m/s 731 mmHg 79%
    06:00 +15°C° 0 mm 1 m/s 731 mmHg 76%
    07:00 +16°C° 0 mm 1 m/s 731 mmHg 73%
    08:00 +18°C° 0 mm 2 m/s 731 mmHg 69%
    09:00 +19°C° 0 mm 2 m/s 731 mmHg 65%
    10:00 +21°C° 0 mm 2 m/s 730 mmHg 61%
    11:00 +22°C° 0 mm 3 m/s 730 mmHg 58%
    12:00 +24°C° 0 mm 3 m/s 730 mmHg 54%
    13:00 +26°C° 0 mm 3 m/s 729 mmHg 51%
    14:00 +26°C° 0 mm 3 m/s 729 mmHg 51%
    15:00 +26°C° 0 mm 3 m/s 728 mmHg 51%
    16:00 +27°C° 0 mm 4 m/s 728 mmHg 51%
    17:00 +25°C° 0.1 mm 4 m/s 728 mmHg 54%
    18:00 +23°C° 0.1 mm 4 m/s 727 mmHg 58%
    19:00 +21°C° 0.1 mm 4 m/s 727 mmHg 61%
    20:00 +20°C° 0.1 mm 4 m/s 727 mmHg 64%
    21:00 +20°C° 0.1 mm 4 m/s 728 mmHg 67%
    22:00 +19°C° 0.1 mm 5 m/s 728 mmHg 70%
    23:00 +18°C° 0.5 mm 4 m/s 728 mmHg 75%

    Amanhã, 5 Junho, Sexta-feira

    Tempo Temperatura Precipitação Vento Pressão Humidade
    00:00 +17°C° 0.5 mm 4 m/s 728 mmHg 81%
    01:00 +17°C° 0.5 mm 4 m/s 728 mmHg 86%
    02:00 +16°C° 0.2 mm 3 m/s 728 mmHg 87%
    03:00 +15°C° 0.2 mm 2 m/s 728 mmHg 88%
    04:00 +15°C° 0.2 mm 2 m/s 728 mmHg 89%
    05:00 +14°C° 1.4 mm 3 m/s 728 mmHg 89%
    06:00 +14°C° 1.4 mm 4 m/s 729 mmHg 89%
    07:00 +13°C° 1.4 mm 5 m/s 729 mmHg 89%
    08:00 +14°C° 0.2 mm 4 m/s 729 mmHg 87%
    09:00 +14°C° 0.2 mm 4 m/s 730 mmHg 85%
    10:00 +14°C° 0.2 mm 3 m/s 730 mmHg 83%
    11:00 +16°C° 0.1 mm 3 m/s 730 mmHg 82%
    12:00 +16°C° 0.1 mm 2 m/s 731 mmHg 81%
    13:00 +17°C° 0.1 mm 2 m/s 731 mmHg 80%
    14:00 +16°C° 0.4 mm 2 m/s 731 mmHg 82%
    15:00 +16°C° 0.4 mm 2 m/s 731 mmHg 85%
    16:00 +16°C° 0.4 mm 2 m/s 732 mmHg 87%
    17:00 +16°C° 0.1 mm 2 m/s 732 mmHg 85%
    18:00 +16°C° 0.1 mm 2 m/s 732 mmHg 84%
    19:00 +16°C° 0.1 mm 2 m/s 732 mmHg 83%
    20:00 +16°C° 0 mm 1 m/s 733 mmHg 83%
    21:00 +15°C° 0 mm 1 m/s 734 mmHg 83%
    22:00 +15°C° 0 mm 1 m/s 734 mmHg 83%
    23:00 +14°C° 0 mm 1 m/s 735 mmHg 83%

    Depois de amanhã, 6 Junho, Sábado

    Tempo Temperatura Precipitação Vento Pressão Humidade
    00:00 +14°C° 0 mm 1 m/s 735 mmHg 83%
    01:00 +13°C° 0 mm 1 m/s 735 mmHg 82%
    02:00 +13°C° 0 mm 1 m/s 736 mmHg 81%
    03:00 +13°C° 0 mm 1 m/s 736 mmHg 80%
    04:00 +13°C° 0 mm 1 m/s 736 mmHg 79%
    05:00 +14°C° 0 mm 1 m/s 737 mmHg 76%
    06:00 +16°C° 0 mm 1 m/s 737 mmHg 74%
    07:00 +17°C° 0 mm 2 m/s 737 mmHg 71%
    08:00 +18°C° 0 mm 3 m/s 737 mmHg 66%
    09:00 +20°C° 0 mm 3 m/s 737 mmHg 61%
    10:00 +21°C° 0 mm 4 m/s 738 mmHg 56%
    11:00 +22°C° 0 mm 5 m/s 737 mmHg 55%
    12:00 +23°C° 0 mm 6 m/s 737 mmHg 54%
    13:00 +23°C° 0 mm 7 m/s 736 mmHg 52%
    14:00 +23°C° 0 mm 6 m/s 736 mmHg 53%
    15:00 +24°C° 0 mm 6 m/s 735 mmHg 54%
    16:00 +25°C° 0 mm 5 m/s 735 mmHg 55%
    17:00 +23°C° 0 mm 5 m/s 735 mmHg 60%
    18:00 +22°C° 0 mm 4 m/s 735 mmHg 65%
    19:00 +21°C° 0 mm 3 m/s 735 mmHg 70%
    20:00 +20°C° 0 mm 3 m/s 735 mmHg 74%
    21:00 +19°C° 0 mm 3 m/s 736 mmHg 79%
    22:00 +18°C° 0 mm 2 m/s 736 mmHg 83%
    23:00 +17°C° 0.8 mm 3 m/s 736 mmHg 85%

    7 Junho, Domingo

    Tempo Temperatura Precipitação Vento Pressão Humidade
    00:00 +17°C° 0.8 mm 3 m/s 736 mmHg 87%
    01:00 +16°C° 0.8 mm 3 m/s 737 mmHg 89%
    02:00 +16°C° 0.2 mm 3 m/s 737 mmHg 88%
    03:00 +14°C° 0.2 mm 3 m/s 737 mmHg 86%
    04:00 +14°C° 0.2 mm 3 m/s 737 mmHg 85%
    05:00 +16°C° 0 mm 3 m/s 737 mmHg 84%
    06:00 +16°C° 0 mm 3 m/s 738 mmHg 83%
    07:00 +16°C° 0 mm 2 m/s 738 mmHg 82%
    08:00 +17°C° 0 mm 2 m/s 738 mmHg 77%
    09:00 +18°C° 0 mm 3 m/s 739 mmHg 72%
    10:00 +19°C° 0 mm 3 m/s 739 mmHg 68%
    11:00 +19°C° 0 mm 3 m/s 739 mmHg 67%
    12:00 +19°C° 0 mm 3 m/s 739 mmHg 67%
    13:00 +20°C° 0 mm 4 m/s 739 mmHg 67%
    14:00 +20°C° 0 mm 4 m/s 739 mmHg 66%
    15:00 +20°C° 0 mm 4 m/s 739 mmHg 65%
    16:00 +20°C° 0 mm 4 m/s 738 mmHg 65%
    17:00 +19°C° 0 mm 3 m/s 738 mmHg 69%
    18:00 +18°C° 0 mm 3 m/s 738 mmHg 74%
    19:00 +17°C° 0 mm 3 m/s 738 mmHg 79%
    20:00 +17°C° 0 mm 2 m/s 738 mmHg 80%
    21:00 +16°C° 0 mm 2 m/s 739 mmHg 81%
    22:00 +15°C° 0 mm 2 m/s 739 mmHg 81%
    23:00 +15°C° 0 mm 1 m/s 738 mmHg 82%

    8 Junho, Segunda-feira

    Tempo Temperatura Precipitação Vento Pressão Humidade
    00:00 +15°C° 0 mm 1 m/s 738 mmHg 82%
    01:00 +14°C° 0 mm 1 m/s 738 mmHg 83%
    02:00 +14°C° 0 mm 1 m/s 737 mmHg 83%
    03:00 +13°C° 0 mm 0 m/s 737 mmHg 84%
    04:00 +13°C° 0 mm 0 m/s 737 mmHg 84%
    05:00 +14°C° 0 mm 0 m/s 737 mmHg 81%
    06:00 +16°C° 0 mm 1 m/s 737 mmHg 79%
    07:00 +18°C° 0 mm 1 m/s 737 mmHg 76%
    08:00 +19°C° 0 mm 1 m/s 737 mmHg 73%
    09:00 +21°C° 0 mm 1 m/s 737 mmHg 69%
    10:00 +21°C° 0 mm 2 m/s 737 mmHg 66%
    11:00 +21°C° 0.1 mm 2 m/s 737 mmHg 66%
    12:00 +23°C° 0.1 mm 2 m/s 737 mmHg 66%
    13:00 +23°C° 0.1 mm 2 m/s 737 mmHg 66%
    14:00 +20°C° 0.6 mm 3 m/s 737 mmHg 72%
    15:00 +18°C° 0.6 mm 4 m/s 737 mmHg 78%
    16:00 +15°C° 0.6 mm 5 m/s 737 mmHg 84%
    17:00 +15°C° 0.4 mm 5 m/s 737 mmHg 84%
    18:00 +14°C° 0.4 mm 5 m/s 737 mmHg 85%
    19:00 +14°C° 0.4 mm 5 m/s 738 mmHg 85%
    20:00 +14°C° 0.1 mm 5 m/s 738 mmHg 85%
    21:00 +14°C° 0.1 mm 4 m/s 738 mmHg 85%
    22:00 +14°C° 0.1 mm 4 m/s 739 mmHg 85%
    23:00 +14°C° 0 mm 4 m/s 739 mmHg 86%

    9 Junho, Terça-feira

    Tempo Temperatura Precipitação Vento Pressão Humidade
    00:00 +13°C° 0 mm 4 m/s 739 mmHg 86%
    01:00 +13°C° 0 mm 4 m/s 739 mmHg 87%
    02:00 +13°C° 0 mm 4 m/s 739 mmHg 87%
    03:00 +13°C° 0 mm 4 m/s 739 mmHg 87%
    04:00 +12°C° 0 mm 4 m/s 739 mmHg 87%
    05:00 +13°C° 0 mm 4 m/s 740 mmHg 85%
    06:00 +14°C° 0 mm 4 m/s 740 mmHg 82%
    07:00 +14°C° 0 mm 5 m/s 740 mmHg 80%
    08:00 +15°C° 0 mm 5 m/s 740 mmHg 76%
    09:00 +17°C° 0 mm 4 m/s 741 mmHg 73%
    10:00 +18°C° 0 mm 4 m/s 741 mmHg 69%
    11:00 +19°C° 0 mm 4 m/s 741 mmHg 67%
    12:00 +20°C° 0 mm 4 m/s 741 mmHg 65%
    13:00 +21°C° 0 mm 4 m/s 741 mmHg 63%
    14:00 +21°C° 0 mm 4 m/s 741 mmHg 62%
    15:00 +21°C° 0 mm 4 m/s 740 mmHg 61%
    16:00 +22°C° 0 mm 4 m/s 740 mmHg 60%
    17:00 +21°C° 0 mm 3 m/s 740 mmHg 65%
    18:00 +20°C° 0 mm 2 m/s 740 mmHg 69%
    19:00 +19°C° 0 mm 2 m/s 740 mmHg 73%
    20:00 +18°C° 0 mm 2 m/s 741 mmHg 75%
    21:00 +18°C° 0 mm 2 m/s 741 mmHg 77%
    22:00 +17°C° 0 mm 2 m/s 741 mmHg 79%
    23:00 +16°C° 0 mm 2 m/s 741 mmHg 80%
    Mostrar mais